x

Grand Traverse Light, Mi (gtlm4) Weather Station

10:40am - Mon 22nd Dec 2014 All times are CST. -6 hours from GMT.

  • Wind
    5mph, 17mph gusts
  • Air Temp 33°f
  • Sea Pressure 1016.3mb
  • Grand Traverse Light, Mi
  • Grand Traverse Light, Mi

More Historic Weather Station data

Upgrade to MSW Pro to gain access to the past 30 days of data for over 8000 Wavebouys and Weather Stations around the globe.

Join Pro

Comparision Forecast

View Surf forecast
   
Mon 12/22 10:40am 5 17 mph 1016.3mb 33f
10:30am 10 22 mph 1016.9mb 33f
10:20am 7 26 mph 1016.9mb 33f
10:10am 13 22 mph 1017.3mb 33f
10:00am 9 20 mph 1017.6mb 33f
9:40am 8 16 mph 1017.6mb 33f
9:30am 9 21 mph 1017.6mb 33f
9:20am 7 21 mph 1017.6mb 33f
9:10am 9 16 mph 1017.6mb 33f
9:00am 7 17 mph 1017.6mb 33f
8:40am 7 17 mph 1017.6mb 33f
8:30am 7 18 mph 1017.6mb 32f
8:20am 5 15 mph 1017.6mb 32f
8:10am 3 15 mph 1017.6mb 32f
8:00am 8 17 mph 1017.6mb 32f
7:40am 6 11 mph 1017.6mb 31f
7:30am 3 11 mph 1017.6mb 31f
7:20am 7 13 mph 1017.6mb 31f
7:10am 6 16 mph 1017.6mb 31f
7:00am 8 18 mph 1017.6mb 31f
6:40am 3 13 mph 1017.6mb 31f
6:30am 7 13 mph 1017.9mb 31f
6:20am 8 15 mph 1017.9mb 32f
6:10am 5 13 mph 1017.6mb 32f
6:00am 7 14 mph 1017.6mb 32f
5:40am 7 13 mph 1017.6mb 32f
5:30am 7 16 mph 1017.6mb 32f
5:20am 7 14 mph 1017.6mb 32f
5:10am 7 15 mph 1017.6mb 32f
5:00am 3 15 mph 1017.6mb 32f
4:40am 7 15 mph 1017.6mb 32f
4:30am 7 15 mph 1017.9mb 32f
4:20am 5 15 mph 1017.6mb 32f
4:10am 7 15 mph 1017.9mb 32f
4:00am 7 14 mph 1017.6mb 32f
3:40am 7 16 mph 1017.9mb 32f
3:30am 7 17 mph 1017.9mb 32f
3:20am 3 15 mph 1017.9mb 32f
3:10am 9 20 mph 1017.9mb 32f
3:00am 10 17 mph 1017.9mb 33f
2:40am 5 11 mph 1018.3mb 33f
2:30am 5 15 mph 1018.3mb 33f
2:20am 7 16 mph 1018.3mb 33f
2:10am 5 15 mph 1018.3mb 33f
2:00am 9 18 mph 1018.3mb 33f
1:40am 7 17 mph 1018.3mb 33f
1:30am 8 16 mph 1018.3mb 33f
1:20am 5 15 mph 1018.3mb 33f
1:10am 9 17 mph 1018.3mb 33f
1:00am 5 20 mph 1018.3mb 33f
12:40am 3 15 mph 1018.3mb 33f
12:30am 6 18 mph 1018.3mb 33f
12:20am 7 21 mph 1018.3mb 33f
12:10am 8 20 mph 1018.6mb 33f
12:00am 9 20 mph 1018.6mb 33f
Sun 12/21 11:40pm 7 21 mph 1018.3mb 33f
11:30pm 6 20 mph 1018.6mb 33f
11:20pm 9 20 mph 1018.6mb 33f
11:10pm 10 18 mph 1018.6mb 33f
11:00pm 8 17 mph 1019mb 33f
10:40pm 7 16 mph 1019mb 33f
10:30pm 8 16 mph 1019mb 33f
10:20pm 6 18 mph 1019.3mb 33f
10:10pm 5 17 mph 1019.3mb 33f
10:00pm 6 22 mph 1019mb 33f
9:40pm 8 18 mph 1019.3mb 33f
9:30pm 7 16 mph 1019.3mb 33f
9:20pm 7 20 mph 1019.6mb 33f
9:10pm 7 20 mph 1019.6mb 33f
9:00pm 10 21 mph 1019.6mb 34f
8:40pm 7 20 mph 1019.6mb 34f
8:30pm 11 22 mph 1019.6mb 34f
8:20pm 3 25 mph 1019.6mb 34f
8:10pm 9 20 mph 1019.6mb 34f
8:00pm 8 18 mph 1019.6mb 34f
7:40pm 8 18 mph 1019.6mb 34f
7:30pm 10 21 mph 1019.6mb 34f
7:20pm 7 16 mph 1019.6mb 34f
7:10pm 8 18 mph 1019.6mb 34f
7:00pm 7 18 mph 1020mb 34f
6:40pm 8 20 mph 1019.6mb 34f
6:30pm 9 21 mph 1019.6mb 34f
6:20pm 8 18 mph 1019.6mb 34f
6:10pm 7 17 mph 1019.6mb 34f
6:00pm 9 20 mph 1019.6mb 34f
5:40pm 10 17 mph 1020mb 34f
5:30pm 8 15 mph 1020mb 34f
5:20pm 8 17 mph 1020mb 34f
5:10pm 6 16 mph 1020mb 34f
5:00pm 8 16 mph 1020.3mb 34f
4:40pm 7 15 mph 1020mb 34f
4:30pm 9 18 mph 1020mb 34f
4:20pm 8 17 mph 1020.3mb 34f
4:10pm 8 20 mph 1020.3mb 34f
4:00pm 8 15 mph 1020mb 34f
3:40pm 8 14 mph 1020mb 34f
3:30pm 6 17 mph 1020mb 34f
3:20pm 9 16 mph 1020.3mb 34f
3:10pm 7 16 mph 1020mb 34f
3:00pm 8 17 mph 1020mb 34f
2:40pm 8 15 mph 1020.3mb 35f
2:30pm 8 15 mph 1020mb 35f
2:20pm 6 14 mph 1020mb 35f
2:10pm 7 17 mph 1020mb 34f
2:00pm 6 15 mph 1020.3mb 34f
1:40pm 7 14 mph 1020.3mb 34f
1:30pm 6 13 mph 1020.3mb 34f
1:20pm 8 15 mph 1020.7mb 34f
1:10pm 3 13 mph 1020.7mb 34f
1:00pm 3 11 mph 1020.7mb 34f
12:40pm 6 11 mph 1021mb 34f
12:30pm 2 10 mph 1021mb 34f
12:20pm 6 14 mph 1021.3mb 34f
12:10pm 2 11 mph 1021.3mb 34f
12:00pm 6 10 mph 1021.7mb 34f
11:50am 6 10 mph 1021.7mb 33f
11:40am 3 10 mph 1022mb 33f
11:30am 6 10 mph 1022mb 33f
11:20am 5 11 mph 1022.4mb 33f
11:10am 6 13 mph 1022.4mb 33f
11:00am 3 14 mph 1022.4mb 33f
10:40am 7 15 mph 1022.7mb 33f
10:30am 3 15 mph 1022.7mb 33f
10:20am 7 16 mph 1022.7mb 33f
10:10am 8 13 mph 1023mb 32f
10:00am 5 10 mph 1023mb 32f
9:50am 5 11 mph 1023mb 32f
9:40am 5 13 mph 1023mb 32f
9:30am 6 11 mph 1023mb 32f
9:20am 6 13 mph 1023mb 32f
9:10am 6 14 mph 1023mb 32f
9:00am 7 11 mph 1023mb 32f
8:50am 7 15 mph 1023mb 32f
8:40am 7 13 mph 1023mb 32f
8:30am 6 11 mph 1023mb 32f
8:20am 3 11 mph 1023.4mb 31f
8:10am 6 10 mph 1023.4mb 31f
8:00am 2 9 mph 1023mb 31f
7:50am 5 11 mph 1023.4mb 31f
7:40am 5 11 mph 1023.4mb 31f
7:30am 6 13 mph 1023.4mb 31f
7:20am 5 11 mph 1023.4mb 31f
7:10am 5 11 mph 1023.4mb 31f
7:00am 6 11 mph 1023.4mb 31f
6:50am 5 14 mph 1023.4mb 30f
6:40am 7 13 mph 1023.4mb 31f
6:30am 6 14 mph 1023.4mb 31f
6:20am 7 13 mph 1023.4mb 31f
6:10am 6 14 mph 1023.4mb 31f
6:00am 7 11 mph 1023.4mb 30f
5:50am 7 13 mph 1023.4mb 31f
5:40am 3 9 mph 1023.4mb 31f
5:30am 2 9 mph 1023.4mb 31f
5:20am 3 13 mph 1023.4mb 30f
5:10am 5 9 mph 1023.4mb 30f
5:00am 5 11 mph 1023.4mb 30f
4:50am 3 10 mph 1023.7mb 30f
4:40am 3 8 mph 1023.7mb 30f
4:30am 2 7 mph 1023.7mb 30f
4:20am 3 8 mph 1024mb 30f
4:10am 3 9 mph 1024mb 30f
4:00am 6 10 mph 1024mb 30f
3:50am 5 10 mph 1024mb 30f
3:40am 3 11 mph 1024mb 30f
3:30am 5 10 mph 1024mb 30f
3:20am 5 11 mph 1024mb 30f
3:10am 2 9 mph 1024.4mb 30f
3:00am 6 9 mph 1024.4mb 30f
2:50am 5 9 mph 1024.4mb 30f
2:40am 3 9 mph 1024.4mb 30f
2:30am 5 9 mph 1024.4mb 30f
2:20am 5 9 mph 1024.7mb 30f
2:10am 5 9 mph 1024.4mb 30f
2:00am 3 11 mph 1024.4mb 30f
1:50am 5 9 mph 1024.4mb 30f
1:40am 3 10 mph 1024.4mb 30f
1:30am 3 7 mph 1024.4mb 30f
1:20am 2 8 mph 1024.4mb 30f
1:10am 3 7 mph 1024.4mb 30f
1:00am 3 7 mph 1024.4mb 30f
12:50am 3 6 mph 1024.4mb 30f
12:40am 5 8 mph 1024.4mb 30f
12:30am 3 8 mph 1024.4mb 29f
12:20am 3 9 mph 1024.4mb 29f
12:10am 6 10 mph 1024.4mb 29f
12:00am 6 13 mph 1024.4mb 29f
Sat 12/20 11:50pm 6 8 mph 1024.4mb 29f
11:40pm 7 10 mph 1024.4mb 29f
11:30pm 5 9 mph 1024.7mb 29f
11:20pm 3 10 mph 1024.4mb 29f
11:10pm 6 9 mph 1024.7mb 29f
11:00pm 5 10 mph 1024.7mb 29f
10:50pm 6 11 mph 1024.7mb 29f
10:40pm 5 11 mph 1024.7mb 29f
10:30pm 3 10 mph 1024.7mb 29f
10:20pm 5 10 mph 1024.7mb 29f
10:10pm 5 10 mph 1025.1mb 29f
10:00pm 5 10 mph 1024.7mb 29f
9:50pm 3 9 mph 1025.1mb 29f
9:40pm 2 13 mph 1024.7mb 29f
9:30pm 2 7 mph 1025.1mb 29f
9:20pm 3 8 mph 1025.1mb 29f
9:10pm 5 8 mph 1025.1mb 29f
9:00pm 2 8 mph 1025.1mb 29f
8:50pm 3 7 mph 1025.1mb 29f
8:40pm 3 9 mph 1025.1mb 29f
8:30pm 6 9 mph 1025.1mb 29f
8:20pm 3 10 mph 1025.1mb 29f
8:10pm 3 11 mph 1024.7mb 29f
8:00pm 2 8 mph 1024.7mb 29f
7:50pm 3 9 mph 1025.1mb 29f
7:40pm 5 8 mph 1024.7mb 29f
7:30pm 2 7 mph 1025.1mb 29f
7:20pm 3 10 mph 1025.1mb 29f
7:10pm 3 8 mph 1025.1mb 29f
7:00pm 2 8 mph 1025.1mb 29f
6:50pm 3 6 mph 1025.4mb 29f
6:40pm 1 6 mph 1025.4mb 29f
6:30pm 2 8 mph 1025.4mb 29f
6:20pm 3 8 mph 1025.4mb 29f
6:10pm  -  7 mph 1025.1mb 29f
6:00pm 3 6 mph 1025.1mb 29f
5:50pm 2 7 mph 1025.1mb 29f
5:40pm  -  6 mph 1025.1mb 29f
5:30pm 3 7 mph 1025.1mb 29f
5:20pm 3 7 mph 1025.1mb 29f
5:10pm 2 6 mph 1025.4mb 29f
5:00pm 3 7 mph 1025.4mb 29f
4:50pm 1 6 mph 1025.4mb 29f
4:40pm 3 6 mph 1025.4mb 29f
4:30pm 2 6 mph 1025.4mb 29f
4:20pm 1 6 mph 1025.4mb 29f
4:10pm 3 5 mph 1025.4mb 29f
4:00pm 1 7 mph 1025.4mb 29f
3:50pm 2 8 mph 1025.4mb 29f
3:40pm 3 7 mph 1025.4mb 30f
3:30pm 1 5 mph 1025.4mb 30f
3:20pm 3 7 mph 1025.1mb 30f
3:10pm 2 7 mph 1025.1mb 30f
3:00pm 3 7 mph 1025.1mb 30f
2:50pm 5 8 mph 1024.7mb 30f
2:40pm 3 8 mph 1024.7mb 30f
2:30pm  -  6 mph 1024.7mb 30f
2:20pm 2 9 mph 1024.7mb 30f
2:10pm 3 7 mph 1024.7mb 30f
2:00pm 2 7 mph 1024.7mb 30f
1:50pm 2 8 mph 1024.7mb 30f
1:40pm 3 9 mph 1024.7mb 30f
1:30pm 3 9 mph 1024.7mb 30f
1:20pm 2 7 mph 1024.7mb 30f
1:10pm 2 9 mph 1024.7mb 30f
1:00pm 5 9 mph 1024.7mb 30f
12:50pm 5 7 mph 1024.7mb 30f
12:40pm 5 8 mph 1024.7mb 30f
12:30pm 3 9 mph 1025.1mb 30f
12:20pm 3 8 mph 1025.1mb 30f
12:10pm 3 9 mph 1025.4mb 30f
12:00pm 3 10 mph 1025.4mb 30f
11:50am 5 8 mph 1025.4mb 30f
11:40am 2 8 mph 1025.4mb 30f
11:30am 2 8 mph 1025.7mb 30f
11:20am 6 10 mph 1025.7mb 30f
11:10am 3 10 mph 1025.7mb 30f
11:00am 5 9 mph 1025.7mb 30f
10:50am 5 13 mph 1025.7mb 30f
10:40am 6 10 mph 1025.7mb 29f
10:30am 7 14 mph 1026.1mb 29f
10:20am 5 11 mph 1026.1mb 29f
10:10am 3 11 mph 1026.1mb 29f
10:00am 2 8 mph 1026.4mb 29f
9:50am 6 11 mph 1026.4mb 29f
9:40am 5 9 mph 1026.4mb 29f
9:30am 2 9 mph 1026.4mb 29f
9:20am 7 10 mph 1026.1mb 29f
9:10am 7 11 mph 1026.4mb 29f
9:00am 7 11 mph 1026.1mb 29f
8:50am 2 9 mph 1026.1mb 29f
8:40am 6 9 mph 1026.1mb 29f
8:30am 3 9 mph 1026.1mb 29f
8:20am 6 10 mph 1026.1mb 29f
8:10am  -  6 mph 1026.1mb 29f
8:00am 5 8 mph 1026.1mb 29f
7:50am 2 6 mph 1026.1mb 29f
7:40am 2 7 mph 1026.1mb 29f
7:30am 3 7 mph 1026.1mb 29f
7:20am 2 7 mph 1026.1mb 29f
7:10am  -  3 mph 1026.1mb 29f
7:00am  -  5 mph 1026.1mb 29f
6:50am  -  5 mph 1026.1mb 29f
6:40am  -  mph 1026.1mb 29f
6:30am  -  2 mph 1026.4mb 29f
6:20am  -  3 mph 1026.1mb 29f
6:10am  -  2 mph 1026.1mb 29f
6:00am  -  5 mph 1026.1mb 29f
5:50am  -  1 mph 1026.1mb 29f
5:40am  -  mph 1026.1mb 28f
5:30am  -  1 mph 1026.1mb 29f
5:20am  -  3 mph 1026.1mb 29f
5:10am  -  5 mph 1026.1mb 28f
5:00am  -  3 mph 1026.1mb 28f
4:50am  -  3 mph 1026.1mb 28f
4:40am  -  3 mph 1025.7mb 28f
4:30am  -  mph 1025.7mb 28f
4:20am  -  mph 1025.7mb 28f
4:10am  -  mph 1025.7mb 28f
4:00am  -  mph 1025.7mb 28f
3:50am  -  1 mph 1025.7mb 28f
3:40am  -  3 mph 1025.7mb 28f
3:30am  -  mph 1025.7mb 28f
3:20am  -  mph 1025.7mb 28f
3:10am  -  mph 1025.7mb 28f
3:00am  -  mph 1025.7mb 28f
2:50am  -  mph 1025.7mb 28f
2:40am  -  1 mph 1025.7mb 28f
2:30am  -  3 mph 1026.1mb 28f
2:20am  -  mph 1025.7mb 28f
2:10am  -  2 mph 1025.7mb 28f
2:00am  -  3 mph 1025.7mb 28f
1:50am  -  mph 1025.7mb 29f
1:40am  -  mph 1025.7mb 28f
1:30am  -  2 mph 1025.7mb 28f
1:20am  -  3 mph 1025.4mb 28f
1:10am 1 2 mph 1025.4mb 28f
1:00am  -  mph 1025.4mb 28f
12:50am  -  1 mph 1025.4mb 29f
12:40am  -  2 mph 1025.4mb 29f
12:30am  -  7 mph 1025.4mb 29f
12:20am  -  5 mph 1025.4mb 29f
12:10am 3 7 mph 1025.4mb 29f
12:00am 5 6 mph 1025.4mb 29f
Fri 12/19 11:50pm 5 7 mph 1025.4mb 29f
11:40pm 5 8 mph 1025.4mb 29f
11:30pm 1 5 mph 1025.4mb 29f
11:20pm 5 7 mph 1025.4mb 29f
11:10pm 5 8 mph 1025.4mb 29f
11:00pm 7 9 mph 1025.4mb 29f
10:50pm 1 6 mph 1025.4mb 29f
10:40pm 5 8 mph 1025.7mb 28f
10:30pm  -  1 mph 1025.7mb 28f
10:20pm 1 3 mph 1025.7mb 28f
10:10pm 1 3 mph 1025.7mb 28f
10:00pm 3 5 mph 1025.7mb 28f
9:50pm  -  3 mph 1026.1mb 27f
9:40pm 2
mph
1026.1mb 27f
9:30pm 1 2 mph 1026.1mb 28f
9:20pm  -  2 mph 1026.4mb 28f
9:10pm 1 2 mph 1026.4mb 28f
9:00pm 1 5 mph 1026.4mb 28f
8:50pm  -  3 mph 1026.4mb 27f
8:40pm 1 2 mph 1026.4mb 28f
8:30pm 2 3 mph 1026.8mb 27f
8:20pm  -  3 mph 1026.8mb 27f
8:10pm  -  2 mph 1026.8mb 28f
8:00pm  -  2 mph 1026.8mb 28f
7:50pm 1 6 mph 1026.8mb 28f
7:40pm 3 5 mph 1026.8mb 28f
7:30pm 2 3 mph 1026.8mb 28f
7:20pm  -  3 mph 1026.8mb 28f
7:10pm  -  3 mph 1027.1mb 28f
7:00pm  -  7 mph 1026.8mb 28f
6:50pm 3 8 mph 1027.1mb 28f
6:40pm 2 7 mph 1026.8mb 28f
6:30pm 2 6 mph 1026.8mb 28f
6:20pm  -  2 mph 1026.8mb 28f
6:10pm  -  6 mph 1026.4mb 29f
6:00pm  -  3 mph 1026.4mb 29f
5:50pm  -  6 mph 1026.4mb 29f
5:40pm 3 6 mph 1026.4mb 28f
5:30pm  -  5 mph 1026.4mb 28f
5:20pm  -  3 mph 1026.4mb 28f
5:10pm  -  7 mph 1026.4mb 28f
5:00pm 1 7 mph 1026.4mb 28f
4:50pm  -  3 mph 1026.4mb 28f
4:40pm  -  1 mph 1026.4mb 28f
4:30pm 2 5 mph 1026.1mb 28f
4:20pm  -  1 mph 1026.1mb 28f
4:10pm 1 7 mph 1026.1mb 28f
4:00pm  -  5 mph 1026.1mb 28f
3:50pm 2 8 mph 1025.7mb 28f
3:40pm 2 5 mph 1025.7mb 28f
3:30pm 2 3 mph 1025.7mb 28f
3:20pm 2 5 mph 1025.7mb 28f
3:10pm 3 8 mph 1025.7mb 28f
3:00pm 5 8 mph 1025.7mb 29f
2:50pm 1 5 mph 1025.4mb 28f
2:40pm  -  mph 1025.7mb 28f
2:30pm  -  7 mph 1025.7mb 28f
2:20pm 6 7 mph 1025.4mb 28f
2:10pm 2 8 mph 1025.4mb 28f
2:00pm  -  5 mph 1025.7mb 29f
1:50pm  -  5 mph 1025.7mb 29f
1:40pm  -  8 mph 1025.4mb 29f
1:30pm 5 7 mph 1025.4mb 29f
1:20pm 6 7 mph 1025.4mb 29f
1:10pm 2 9 mph 1025.4mb 29f
1:00pm 8 10 mph 1025.4mb 29f
12:50pm 1 8 mph 1025.4mb 29f
12:40pm 5 8 mph 1025.4mb 29f
12:30pm 7 10 mph 1025.4mb 30f
12:20pm 6 9 mph 1025.4mb 29f
12:10pm 6 8 mph 1025.7mb 29f
12:00pm 5 9 mph 1025.7mb 30f
11:50am 5 10 mph 1025.7mb 29f
11:40am 8 11 mph 1025.7mb 29f
11:30am  -  mph 1025.7mb 29f
11:20am 2 10 mph 1026.1mb 29f
11:10am 3 7 mph 1026.1mb 29f
11:00am  -  1 mph 1026.1mb 30f
10:50am  -  6 mph 1026.1mb 29f
10:40am 5 7 mph 1026.4mb 29f
10:30am  -  3 mph 1026.4mb 29f
10:20am  -  2 mph 1026.4mb 29f
10:10am 2 7 mph 1026.4mb 28f
10:00am 2 8 mph 1026.4mb 28f
9:50am 5 7 mph 1026.8mb 28f
9:40am 2 6 mph 1026.8mb 28f
9:30am 2 6 mph 1026.8mb 28f
9:20am 2 6 mph 1026.4mb 28f
9:10am  -  mph 1026.4mb 27f
9:00am  -  mph 1026.4mb 27f
8:50am  -  mph 1026.4mb 27f
8:40am  -  mph 1026.4mb 26f
8:30am  -  mph 1026.4mb 26f
8:20am  -  mph 1026.1mb 26f
8:10am  -  mph 1026.1mb 25f
8:00am  -  2 mph 1026.1mb 25f
7:50am 1 3 mph 1026.1mb 25f
7:40am  -  5 mph 1025.7mb 25f
7:30am  -  3 mph 1025.7mb 25f
7:20am  -  5 mph 1026.1mb 24f
7:10am  -  3 mph 1025.7mb 24f
7:00am  -  2 mph 1025.7mb 24f
6:50am  -  mph 1026.1mb 23f
6:40am  -  mph 1025.7mb 23f
6:30am  -  mph 1025.7mb 23f
6:20am  -  3 mph 1025.7mb 23f
6:10am  -  1 mph 1025.7mb 24f
6:00am  -  3 mph 1025.7mb 24f
5:50am  -  5 mph 1025.7mb 23f
5:40am 1 3 mph 1025.7mb 23f
5:30am  -  5 mph 1025.7mb 23f
5:20am  -  3 mph 1025.7mb 23f
5:10am  -  mph 1025.4mb 23f
5:00am  -  mph 1025.4mb 23f
4:50am 1 3 mph 1025.1mb 23f
4:40am  -  2 mph 1025.1mb 22f
4:30am  -  mph 1025.1mb 22f
4:20am  -  mph 1025.1mb 22f
4:10am  -  1 mph 1025.1mb 22f
4:00am  -  2 mph 1025.1mb 22f
3:50am  -  2 mph 1025.1mb 21f
3:40am  -  2 mph 1025.1mb 22f
3:30am  -  2 mph 1024.7mb 22f
3:20am  -  2 mph 1024.7mb 23f
3:10am  -  mph 1025.1mb 23f
3:00am  -  mph 1025.1mb 23f
2:50am  -  2 mph 1024.7mb 22f
2:40am  -  6 mph 1024.7mb 22f
2:30am  -  2 mph 1024.7mb 22f
2:20am  -  3 mph 1025.1mb 22f
2:10am 3 5 mph 1025.1mb 22f
2:00am  -  5 mph 1025.1mb 21f
1:50am 2 5 mph 1025.1mb 21f
1:40am 2 3 mph 1024.7mb 21f
1:30am 2 5 mph 1024.4mb 21f
1:20am 2 5 mph 1024.7mb 20f
1:10am 2 3 mph 1024.4mb 20f
1:00am 2 5 mph 1024.4mb 20f
12:50am 2 5 mph 1024.7mb 20f
12:40am 3 5 mph 1024.7mb 20f
12:30am 3 5 mph 1024.7mb 20f
12:20am  -  5 mph 1024.7mb 20f
12:10am 3 6 mph 1024.7mb 20f
12:00am 3 6 mph 1024.7mb 20f
Thu 12/18 11:50pm 5 6 mph 1024.7mb 21f
11:40pm 3 5 mph 1024.7mb 21f
11:30pm 3 5 mph 1025.1mb 21f
11:20pm 3 5 mph 1025.1mb 21f
11:10pm 3 5 mph 1025.1mb 21f
11:00pm 3
mph
1025.1mb 21f
10:50pm 2 5 mph 1025.1mb 21f
10:40pm 3 5 mph 1025.1mb 21f
10:30pm 2 5 mph 1025.1mb 21f
10:20pm 3 6 mph 1025.1mb 21f
10:10pm 3 6 mph 1024.7mb 22f
10:00pm 3 6 mph 1024.7mb 22f
9:50pm 3 6 mph 1024.7mb 23f
9:40pm 3 6 mph 1024.7mb 23f
9:30pm 5 7 mph 1024.7mb 24f
9:20pm 3 7 mph 1024.4mb 24f
9:10pm 5 8 mph 1024.4mb 24f
9:00pm 6 8 mph 1024.4mb 24f
8:50pm 6 8 mph 1024.7mb 24f
8:40pm 5 8 mph 1024.4mb 25f
8:30pm 5 9 mph 1024.4mb 25f
8:20pm 6 10 mph 1024.7mb 25f
8:10pm 7 10 mph 1024.7mb 25f
8:00pm 6 9 mph 1024.4mb 25f
7:50pm 6 10 mph 1024.4mb 26f
7:40pm 7 17 mph 1024.4mb 27f
7:30pm 14 17 mph 1024.4mb 28f
7:20pm 14 17 mph 1024.4mb 28f
7:10pm 15 18 mph 1024.4mb 28f
7:00pm 15 20 mph 1024.4mb 28f
6:50pm 15 18 mph 1024mb 29f
6:40pm 15 18 mph 1024.4mb 29f
6:30pm 16 20 mph 1024.4mb 29f
6:20pm 14 17 mph 1024.4mb 29f
6:10pm 15 18 mph 1024.4mb 29f